Oakey, Australia

4:08 PM AEST on October 17, 2017 (GMT +1000)
Oakey (Military)

Weather History for YBOK - November, 2013

Change the Weather History Date:

Monday, November 25, 2013

  Actual Average Record
Temperature  
Mean Temperature 70 °F -  
Max Temperature 90 °F - - ()
Min Temperature 49 °F - - ()
Cooling Degree Days 4    
Growing Degree Days 20 (Base 50)    
Moisture  
Dew Point 46 °F    
Average Humidity 46    
Maximum Humidity 83    
Minimum Humidity 7    
Precipitation  
Precipitation 0.00 in - - ()
Sea Level Pressure  
Sea Level Pressure 29.70 in    
Wind  
Wind Speed 7 mph ()    
Max Wind Speed 20 mph    
Max Gust Speed 31 mph    
Visibility 9.9 miles    
Events      
T = Trace of Precipitation, MM = Missing Value Source: Averaged Metar Reports

Daily Weather History Graph

Daily Weather History Graph

Search for Another Location

Airport or City:

Trip Planner

Search our weather history database for the weather conditions in past years. The results will help you decide how hot, cold, wet, or windy it might be!

Date:

Astronomy

Nov. 25, 2013 Rise Set
Actual Time 4:50 AM AEST 6:29 PM AEST
Civil Twilight 4:24 AM AEST 6:55 PM AEST
Nautical Twilight 3:53 AM AEST 7:26 PM AEST
Astronomical Twilight 3:21 AM AEST 7:58 PM AEST
Moon 11:53 PM AEST (11/25) 10:57 AM AEST (11/25)
Length of Visible Light 14h 30m
Length of Day
13h 39m
Waning Gibbous, 57% of the Moon is Illuminated
Nov 25
Waning Gibbous
Nov 26
Last Quarter
Dec 3
New
Dec 10
First Quarter
Dec 17
Full

Hourly Weather History & Observations

Time (AEST) Temp. Dew Point Humidity Pressure Visibility Wind Dir Wind Speed Gust Speed Precip Events Conditions
12:00 AM 55 °F 43 °F 53% 29.68 in - NE 3.5 mph - -  
12:00 AM 55.4 °F 42.8 °F 63% 29.71 in 6.2 mi NE 3.5 mph - N/A   Unknown
1:00 AM 53 °F 43 °F 61% 29.68 in - SSE 4.6 mph - -  
1:00 AM 53.6 °F 42.8 °F 67% 29.71 in 6.2 mi SSE 4.6 mph - N/A   Unknown
2:00 AM 53.6 °F 44.6 °F 72% 29.71 in 6.2 mi ESE 3.5 mph - N/A   Unknown
3:00 AM 51 °F 42 °F 63% 29.68 in - NNE 3.5 mph - -  
3:00 AM 50.0 °F 42.8 °F 76% 29.71 in 6.2 mi NNE 3.5 mph - N/A   Unknown
4:00 AM 50 °F 42 °F 66% 29.68 in - Calm Calm - -  
4:00 AM 50.0 °F 42.8 °F 76% 29.71 in 6.2 mi Calm Calm - N/A   Unknown
5:00 AM 50.0 °F 44.6 °F 82% 29.74 in 6.2 mi East 4.6 mph - N/A   Unknown
6:00 AM 60 °F 52 °F 69% 29.70 in 16 mi South 5.8 mph - -   Partly Cloudy
6:00 AM 59.0 °F 51.8 °F 77% 29.74 in 6.2 mi South 5.8 mph - N/A   Partly Cloudy
7:00 AM 68 °F 57 °F 59% 29.72 in - SE 4.6 mph - -  
7:00 AM 68.0 °F 57.2 °F 68% 29.77 in 6.2 mi SE 4.6 mph - N/A   Partly Cloudy
8:00 AM 75.2 °F 57.2 °F 53% 29.77 in - East 6.9 mph - N/A   Clear
9:00 AM 81 °F 46 °F 19% 29.71 in 16 mi SE 6.9 mph - -   Partly Cloudy
9:00 AM 80.6 °F 46.4 °F 30% 29.74 in 6.2 mi SE 6.9 mph - N/A   Partly Cloudy
10:00 AM 84 °F 44 °F 15% 29.69 in - South 9.2 mph - -  
10:00 AM 84.2 °F 44.6 °F 25% 29.74 in 6.2 mi South 9.2 mph - N/A   Partly Cloudy
11:00 AM 86.0 °F 37.4 °F 18% 29.71 in 6.2 mi WSW 16.1 mph - N/A   Partly Cloudy
12:00 PM 87 °F 36 °F 8% 29.66 in 19 mi WSW 19.6 mph - -   Partly Cloudy
12:00 PM 87.8 °F 35.6 °F 16% 29.71 in 6.2 mi WSW 18.4 mph 31.1 mph N/A   Partly Cloudy
1:00 PM 88 °F 41 °F 11% 29.63 in - SW 17.3 mph - -  
1:00 PM 87.8 °F 41.0 °F 19% 29.68 in - SW 17.3 mph - N/A   Clear
2:00 PM 89.6 °F 35.6 °F 15% 29.65 in - WSW 5.8 mph - N/A   Clear
3:00 PM 90 °F 34 °F 7% 29.60 in 19 mi SW 10.4 mph - -   Partly Cloudy
3:00 PM 89.6 °F 33.8 °F 14% 29.62 in - SW 10.4 mph - N/A   Clear
4:00 PM 90 °F 35 °F 7% 29.59 in - West 11.5 mph - -  
4:00 PM 89.6 °F 35.6 °F 15% 29.62 in - West 11.5 mph - N/A   Clear
5:00 PM 87.8 °F 35.6 °F 16% 29.65 in - West 10.4 mph - N/A   Clear
6:00 PM 85 °F 36 °F 10% 29.63 in 19 mi WSW 9.2 mph - -   Partly Cloudy
6:00 PM 84.2 °F 37.4 °F 19% 29.68 in - WSW 9.2 mph - N/A   Clear
7:00 PM 76 °F 62 °F 52% 29.68 in - East 16.1 mph - -  
7:00 PM 75.2 °F 62.6 °F 65% 29.71 in - East 16.1 mph - N/A   Clear
8:00 PM 71.6 °F 62.6 °F 73% 29.74 in - East 12.7 mph - N/A   Clear
9:00 PM 69 °F 62 °F 73% 29.72 in 19 mi East 12.7 mph - -   Partly Cloudy
9:00 PM 69.8 °F 62.6 °F 78% 29.77 in - East 12.7 mph - N/A   Clear
10:00 PM 69 °F 62 °F 72% 29.74 in - ENE 12.7 mph - -  
10:00 PM 68.0 °F 62.6 °F 83% 29.77 in - ENE 12.7 mph - N/A   Clear
11:00 PM 68.0 °F 62.6 °F 83% 29.77 in 6.2 mi East 11.5 mph - N/A   Scattered Clouds